Regional Weather Roundup
Issued by NWS State College, PA

Home | Current Version | Previous Version | Text Only | Print | Product List | Glossary On
Versions: 1 2 3 4 5 6 7 8 9 10 11 12 13 14 15 16 17 18 19 20 21 22 23 24 25 26 27 28 29 30 31 32 33 34 35 36 37 38 39 40 41 42 43 44 45 46 47 48 49 50
000
ASUS41 KCTP 280510
RWRCTP

REGIONAL WEATHER ROUNDUP
NATIONAL WEATHER SERVICE STATE COLLEGE PA
100 AM EDT FRI AUG 28 2015

Note: "fair" indicates few or no clouds below 12,000 feet with no
significant weather and/or obstructions to visibility.

* = STATION THAT DOES NOT REPORT PRECIPITATION /E.G. RAIN...SNOW...ETC/
    THUNDER OR FOG.

PAZ002>004-007>009-013>016-020>023-029>032-280600-
WESTERN PENNSYLVANIA

CITY           SKY/WX    TMP DP  RH WIND       PRES   REMARKS
ERIE           CLEAR     56  52  86 SW6       30.19S
MEADVILLE      CLEAR     54  51  90 CALM      30.21S FOG
FRANKLIN*      CLEAR     52  48  87 CALM      30.23S
NEW CASTLE     FAIR      54  54 100 CALM      30.21S FOG
BEAVER COUNTY  NOT AVBL
BUTLER*        CLEAR     54  52  94 CALM      30.22R
PITTSBURGH INT CLEAR     62  56  80 NE6       30.19S
PITTSBURGH     CLEAR     62  52  69 CALM      30.19S
INDIANA*       MOCLDY    55  55 100 CALM      30.23F
LATROBE        NOT AVBL
WASHINGTON CO* CLEAR     54  52  94 CALM      30.19F
$$

PAZ004>006-010>012-017>019-024>028-033>037-041-042-045-046-049>053-280600-
CENTRAL PENNSYLVANIA

CITY           SKY/WX    TMP DP  RH WIND       PRES   REMARKS
BRADFORD       CLEAR     47  44  90 CALM      30.22S
DUBOIS         CLEAR     56  52  86 CALM      30.21S
CLEARFIELD     CLEAR     56  52  86 NW5       30.21S
JOHNSTOWN      CLEAR     58  53  84 S3        30.22S
ALTOONA        MOCLDY    55  52  89 CALM      30.21R
STATE COLLEGE  PTCLDY    58  56  91 CALM      30.20R
WILLIAMSPORT   PTCLDY    62  58  86 CALM      30.16R
SELINSGROVE    CLOUDY    62  60  93 CALM      30.17R
FT INDIANTOWN  CLOUDY    59  57  93 CALM      30.17R
CAPITAL CITY   MOCLDY    61  57  87 CALM      30.16S
HARRISBURG     MOCLDY    63  57  81 CALM      30.16R
YORK           CLEAR     56  54  93 CALM      30.17R
$$

PAZ038>040-043-044-047-048-054-055-060>062-067>071-280600-
EASTERN PENNSYLVANIA

CITY           SKY/WX    TMP DP  RH WIND       PRES   REMARKS
SCRANTON       PTCLDY    58  53  84 E5        30.17R
MOUNT POCONO   CLEAR     52  49  89 N5        30.19R
ALLENTOWN      CLEAR     59  54  83 W5        30.17R
QUAKERTOWN*    CLEAR     55  54  94 CALM      30.18R
READING        CLEAR     59  55  87 CALM      30.16R
LANCASTER      CLEAR     57  55  93 E3        30.17R
COATESVILLE    CLEAR     57  55  94 NW3       30.18R
POTTSTOWN      CLEAR     57  55  93 CALM      30.18R
BLUE BELL      CLEAR     55  55 100 CALM      30.16R
DOYLESTOWN     CLEAR     57  55  93 CALM      30.16R
WILLOW GROVE   NOT AVBL
NORTH PHILA    CLEAR     64  54  69 CALM      30.16S
PHILADELPHIA   PTCLDY    68  55  63 N6        30.16R
$$


USA.gov is the U.S. government's official web portal to all federal, state and local government web resources and services.